FW9251 Weather Reports


Display with metric or nautical units.
time (UTC)temp
F
wind
direction
speed
MPH
gust
MPH
rain 1hr
in
rain 24hr
in
rain mn
in
humidity
%
barometer
mb
20260507003431 60 349 4.0 6.0 0.00 0.00 0.00 79 1019.8
20260507002926 60 11 1.0 2.0 0.00 0.00 0.00 81 1019.9
20260507002422 60 345 6.0 9.0 0.00 0.00 0.00 80 1019.8
20260507001920 60 354 3.0 5.0 0.00 0.00 0.00 80 1019.7
20260507001416 60 320 3.0 6.0 0.00 0.00 0.00 79 1020.0
20260507000914 60 319 7.0 9.0 0.00 0.00 0.00 79 1019.9
20260507000409 60 47 6.0 9.0 0.00 0.00 0.00 78 1019.7
20260506235905 61 339 5.0 8.0 0.00 0.00 0.00 78 1019.8
20260506235403 61 321 3.0 3.0 0.00 0.00 0.00 78 1019.8
20260506234858 61 305 7.0 8.0 0.00 0.00 0.00 77 1019.9
20260506234356 61 349 7.0 8.0 0.00 0.00 0.00 78 1019.8
20260506233853 61 301 8.0 10.0 0.00 0.00 0.00 77 1019.6
20260506233349 61 293 7.0 10.0 0.00 0.00 0.00 76 1019.8
20260506232846 61 337 7.0 8.0 0.00 0.00 0.00 76 1019.5
20260506232342 62 16 4.0 6.0 0.00 0.00 0.00 76 1019.7
20260506231838 62 305 5.0 6.0 0.00 0.00 0.00 75 1019.7
20260506231337 62 18 5.0 6.0 0.00 0.00 0.00 76 1019.7
20260506230834 62 341 5.0 9.0 0.00 0.00 0.00 76 1019.6
20260506230330 62 316 7.0 9.0 0.00 0.00 0.00 75 1019.7
20260506225826 63 320 5.0 7.0 0.00 0.00 0.00 75 1019.6
20260506225324 62 237 0.0 1.0 0.00 0.00 0.00 76 1019.6
20260506224821 63 317 6.0 9.0 0.00 0.00 0.00 75 1019.7
20260506224318 63 310 9.0 11.0 0.00 0.00 0.00 74 1019.9
20260506223814 63 307 2.0 3.0 0.00 0.00 0.00 75 1019.8
20260506223309 63 9 5.0 6.0 0.00 0.00 0.00 74 1019.7
20260506222807 65 320 6.0 7.0 0.00 0.00 0.00 73 1019.6
20260506222305 64 283 2.0 3.0 0.00 0.00 0.00 74 1019.6
20260506221800 65 332 6.0 8.0 0.00 0.00 0.00 72 1019.8
20260506221258 65 321 4.0 6.0 0.00 0.00 0.00 73 1019.9
20260506220755 64 314 4.0 6.0 0.00 0.00 0.00 72 1019.7
20260506220250 65 205 1.0 1.0 0.00 0.00 0.00 73 1019.6
20260506215747 64 330 3.0 3.0 0.00 0.00 0.00 73 1019.9
20260506215243 65 16 3.0 5.0 0.00 0.00 0.00 71 1020.1
20260506214739 65 274 2.0 5.0 0.00 0.00 0.00 71 1019.6
20260506214236 64 326 2.0 3.0 0.00 0.00 0.00 73 1019.8
20260506213735 65 55 3.0 5.0 0.00 0.00 0.00 71 1019.8
20260506213231 65 12 4.0 6.0 0.00 0.00 0.00 72 1019.8
20260506212729 64 12 3.0 5.0 0.00 0.00 0.00 72 1019.7
20260506212224 64 306 3.0 3.0 0.00 0.00 0.00 72 1019.9
20260506211719 65 295 2.0 2.0 0.00 0.00 0.00 73 1020.1
20260506211216 64 51 2.0 2.0 0.00 0.00 0.00 72 1019.8
20260506210713 64 313 2.0 3.0 0.00 0.00 0.00 72 1019.8
20260506210210 64 9 2.0 2.0 0.00 0.00 0.00 73 1019.7
20260506205707 64 346 3.0 3.0 0.00 0.00 0.00 72 1019.8
20260506205202 63 33 1.0 1.0 0.00 0.00 0.00 75 1019.8
20260506204659 63 12 3.0 6.0 0.00 0.00 0.00 74 1019.6
20260506204156 63 337 3.0 5.0 0.00 0.00 0.00 76 1019.8
20260506203655 63 332 2.0 3.0 0.00 0.00 0.00 76 1020.0
20260506203152 63 4 2.0 2.0 0.00 0.00 0.00 76 1019.9
20260506202650 62 2 3.0 5.0 0.00 0.00 0.00 77 1020.1
20260506202145 62 44 1.0 1.0 0.00 0.00 0.00 80 1020.1
20260506201642 62 40 2.0 2.0 0.00 0.00 0.00 78 1020.0
20260506201139 62 10 4.0 5.0 0.00 0.00 0.00 78 1020.1
20260506200635 62 342 2.0 2.0 0.00 0.00 0.00 77 1019.9
20260506200132 62 29 2.0 3.0 0.00 0.00 0.00 77 1020.0
20260506195629 62 343 5.0 6.0 0.00 0.00 0.00 77 1020.0
20260506195125 63 9 4.0 6.0 0.00 0.00 0.00 77 1020.0
20260506194623 63 351 1.0 2.0 0.00 0.00 0.00 78 1019.9
20260506194119 63 229 0.0 1.0 0.00 0.00 0.00 79 1020.2
20260506193617 62 356 0.0 1.0 0.00 0.00 0.00 79 1020.0
20260506193114 61 240 0.0 0.0 0.00 0.00 0.00 80 1020.0
20260506192611 61 334 3.0 3.0 0.00 0.00 0.00 81 1020.0
20260506192106 60 335 3.0 3.0 0.00 0.00 0.00 82 1020.1
20260506191603 60 327 3.0 3.0 0.00 0.00 0.00 82 1020.3
20260506191059 60 355 3.0 3.0 0.00 0.00 0.00 82 1020.2
20260506190557 60 40 1.0 2.0 0.00 0.00 0.00 82 1020.2
20260506190054 60 332 4.0 6.0 0.00 0.00 0.00 82 1020.4
20260506185551 60 23 3.0 3.0 0.00 0.00 0.00 82 1020.4
20260506185047 60 326 4.0 5.0 0.00 0.00 0.00 83 1020.2
20260506184545 59 47 3.0 3.0 0.00 0.00 0.00 84 1020.3
20260506184042 59 339 2.0 2.0 0.00 0.00 0.00 83 1020.1
20260506183538 59 332 2.0 3.0 0.00 0.00 0.00 84 1020.2
20260506183034 59 343 3.0 3.0 0.00 0.00 0.00 85 1020.1
20260506182532 59 11 2.0 3.0 0.00 0.00 0.00 85 1020.2
20260506182029 59 325 3.0 5.0 0.00 0.00 0.00 85 1020.3
20260506181527 59 348 2.0 3.0 0.00 0.00 0.00 85 1020.3
20260506181023 58 330 2.0 2.0 0.00 0.00 0.00 85 1020.3
20260506180520 58 1 3.0 5.0 0.00 0.00 0.00 85 1020.3
20260506180016 58 346 1.0 2.0 0.00 0.00 0.00 86 1020.2
20260506175513 58 35 2.0 3.0 0.00 0.00 0.00 85 1020.1
20260506175009 58 39 2.0 3.0 0.00 0.00 0.00 85 1020.0
20260506174508 58 303 2.0 2.0 0.00 0.00 0.00 85 1020.1
20260506174004 57 16 2.0 3.0 0.00 0.00 0.00 86 1019.6
20260506173502 58 10 3.0 5.0 0.00 0.00 0.00 85 1020.2
20260506172958 58 2 3.0 3.0 0.00 0.00 0.00 85 1020.0
20260506172456 58 312 3.0 3.0 0.00 0.00 0.00 85 1020.0
20260506171952 58 341 2.0 2.0 0.00 0.00 0.00 86 1020.0
20260506171449 58 351 2.0 3.0 0.00 0.00 0.00 86 1019.8
20260506170947 57 317 1.0 2.0 0.00 0.00 0.00 86 1019.7
20260506170443 57 322 2.0 3.0 0.00 0.00 0.00 86 1019.7
20260506165942 57 331 2.0 3.0 0.00 0.00 0.00 86 1019.9
20260506165440 57 357 3.0 3.0 0.00 0.00 0.00 86 1020.0
20260506164936 57 300 2.0 2.0 0.00 0.00 0.00 86 1019.8
20260506164433 57 315 3.0 3.0 0.00 0.00 0.00 85 1019.9
20260506163931 57 310 1.0 1.0 0.00 0.00 0.00 86 1019.8
20260506163425 57 333 1.0 2.0 0.00 0.00 0.00 85 1019.7
20260506162921 57 324 2.0 3.0 0.00 0.00 0.00 85 1019.8
20260506162419 57 314 2.0 2.0 0.00 0.00 0.00 85 1019.5
20260506161916 57 356 3.0 3.0 0.00 0.00 0.00 85 1019.7
20260506161414 57 355 3.0 3.0 0.00 0.00 0.00 86 1019.6
20260506160911 57 312 3.0 3.0 0.00 0.00 0.00 86 1019.6
20260506160408 56 312 1.0 2.0 0.00 0.00 0.00 87 1019.6
20260506155906 56 328 3.0 3.0 0.00 0.00 0.00 86 1019.7
20260506155403 56 339 5.0 7.0 0.00 0.00 0.00 86 1019.3
20260506153525 56 328 2.0 3.0 0.00 0.00 0.00 86 1019.4
20260506153022 56 320 3.0 3.0 0.00 0.00 0.00 85 1019.3
20260506152519 57 306 2.0 3.0 0.00 0.00 0.00 85 1019.2
20260506152018 57 253 1.0 1.0 0.00 0.00 0.00 84 1018.9
20260506151515 56 198 0.0 0.0 0.00 0.00 0.00 86 1019.0
20260506151012 56 318 1.0 1.0 0.00 0.00 0.00 86 1019.1
20260506150508 56 298 1.0 1.0 0.00 0.00 0.00 86 1019.4
20260506150005 56 299 2.0 2.0 0.00 0.00 0.00 87 1019.4
20260506145501 55 9 0.0 1.0 0.00 0.00 0.00 87 1019.2
20260506144959 55 325 3.0 3.0 0.00 0.00 0.00 88 1019.5
20260506144456 55 227 0.0 1.0 0.00 0.00 0.00 88 1019.3
20260506143954 55 194 3.0 3.0 0.00 0.00 0.00 88 1019.6
20260506143451 55 311 3.0 5.0 0.00 0.00 0.00 88 1019.4
20260506142949 55 237 4.0 6.0 0.00 0.00 0.00 89 1019.6
20260506142446 55 306 0.0 1.0 0.00 0.00 0.00 89 1019.5
20260506141944 55 295 1.0 1.0 0.00 0.00 0.00 90 1019.5
20260506141442 55 352 3.0 3.0 0.00 0.00 0.00 90 1019.3
20260506140940 55 292 3.0 3.0 0.00 0.00 0.00 90 1019.4
20260506140437 54 284 1.0 1.0 0.00 0.00 0.00 91 1019.4
20260506135933 54 256 0.0 1.0 0.00 0.00 0.00 91 1019.4
20260506135431 54 292 1.0 2.0 0.00 0.00 0.00 91 1019.1
20260506134927 54 307 3.0 5.0 0.00 0.00 0.00 91 1018.9
20260506134423 54 288 1.0 2.0 0.00 0.00 0.00 91 1018.8
20260506133920 54 189 1.0 1.0 0.00 0.00 0.00 91 1018.6
20260506133417 54 289 1.0 2.0 0.00 0.00 0.00 91 1018.8
20260506132914 54 293 1.0 1.0 0.00 0.00 0.00 91 1018.9
20260506132411 54 342 3.0 5.0 0.00 0.00 0.00 91 1018.7
20260506131909 54 293 3.0 5.0 0.00 0.00 0.00 91 1018.8
20260506131405 54 321 2.0 2.0 0.00 0.00 0.00 91 1018.8
20260506130902 54 235 0.0 1.0 0.00 0.00 0.00 91 1018.5
20260506130358 54 324 1.0 1.0 0.00 0.00 0.00 91 1018.5
20260506125857 54 304 3.0 3.0 0.00 0.00 0.00 91 1018.6
20260506125355 54 306 2.0 2.0 0.00 0.00 0.00 91 1018.7
20260506124853 54 200 1.0 2.0 0.00 0.00 0.00 91 1018.5
20260506124349 54 312 2.0 3.0 0.00 0.00 0.00 91 1018.2
20260506123847 54 355 5.0 6.0 0.00 0.00 0.00 91 1018.2
20260506123345 54 348 3.0 5.0 0.00 0.00 0.00 91 1018.3
20260506122842 54 274 2.0 3.0 0.00 0.00 0.00 92 1018.0
20260506122339 54 318 1.0 2.0 0.00 0.00 0.00 92 1018.3
20260506121837 54 302 0.0 1.0 0.00 0.00 0.00 92 1018.3
20260506121334 54 303 1.0 2.0 0.00 0.00 0.00 92 1018.0
20260506120831 54 310 3.0 5.0 0.00 0.00 0.00 92 1017.9
20260506120329 54 236 1.0 1.0 0.00 0.00 0.00 92 1018.1
20260506115826 54 216 0.0 1.0 0.00 0.00 0.00 92 1018.2
20260506115324 55 284 2.0 2.0 0.00 0.00 0.00 92 1018.2
20260506114822 55 334 3.0 5.0 0.00 0.00 0.00 92 1018.1
20260506114319 55 300 1.0 2.0 0.00 0.00 0.00 91 1018.0
20260506113818 55 223 0.0 1.0 0.00 0.00 0.00 91 1018.3
20260506113315 55 315 5.0 6.0 0.00 0.00 0.00 91 1018.1
20260506112811 55 306 1.0 2.0 0.00 0.00 0.00 91 1018.1
20260506112309 55 306 3.0 3.0 0.00 0.00 0.00 91 1017.9
20260506111806 55 328 5.0 6.0 0.00 0.00 0.00 91 1017.9
20260506111304 55 309 3.0 5.0 0.00 0.00 0.00 91 1017.7
20260506110801 55 242 2.0 3.0 0.00 0.00 0.00 91 1017.8
20260506110258 55 306 3.0 3.0 0.00 0.00 0.00 91 1017.9
20260506105754 55 320 3.0 3.0 0.00 0.00 0.00 91 1017.8
20260506105251 55 324 4.0 7.0 0.00 0.00 0.00 91 1017.7
20260506104749 55 316 1.0 2.0 0.00 0.00 0.00 90 1017.6
20260506104247 55 228 3.0 5.0 0.00 0.00 0.00 90 1017.6
20260506103744 55 298 3.0 3.0 0.00 0.00 0.00 90 1017.6
20260506103241 56 313 5.0 7.0 0.00 0.00 0.00 90 1017.5
20260506102739 56 233 2.0 2.0 0.00 0.00 0.00 90 1017.5
20260506102237 56 323 3.0 5.0 0.00 0.00 0.00 90 1017.4
20260506101733 56 323 4.0 5.0 0.00 0.00 0.00 90 1017.3
20260506101230 56 215 2.0 3.0 0.00 0.00 0.00 90 1017.3
20260506100728 56 318 3.0 3.0 0.00 0.00 0.00 90 1017.1
20260506100226 56 266 2.0 2.0 0.00 0.00 0.00 90 1017.1
20260506095724 56 213 0.0 1.0 0.00 0.00 0.00 89 1017.0
20260506095220 56 289 3.0 3.0 0.00 0.00 0.00 89 1017.1
20260506094717 56 344 3.0 3.0 0.00 0.00 0.00 89 1017.1
20260506094215 56 286 0.0 1.0 0.00 0.00 0.00 89 1016.9
20260506093714 56 334 2.0 3.0 0.00 0.00 0.00 89 1016.9
20260506093210 56 300 2.0 2.0 0.00 0.00 0.00 89 1016.8
20260506092708 56 272 1.0 1.0 0.00 0.00 0.00 89 1016.8
20260506092206 56 263 1.0 1.0 0.00 0.00 0.00 89 1016.7
20260506091703 56 295 1.0 2.0 0.00 0.00 0.00 89 1016.7
20260506091200 56 306 3.0 5.0 0.00 0.00 0.00 89 1016.7
20260506090658 56 319 3.0 5.0 0.00 0.00 0.00 89 1016.7
20260506090154 56 332 4.0 6.0 0.00 0.00 0.00 89 1016.7
20260506085652 56 57 2.0 2.0 0.00 0.00 0.00 89 1016.5
20260506085148 56 238 1.0 2.0 0.00 0.00 0.00 89 1016.9
20260506084644 56 198 3.0 5.0 0.00 0.00 0.00 89 1016.8
20260506084141 56 227 0.0 1.0 0.00 0.00 0.00 89 1016.9
20260506083638 56 238 0.0 0.0 0.00 0.00 0.00 88 1016.8
20260506083136 56 324 4.0 5.0 0.00 0.00 0.00 88 1016.7
20260506082632 56 314 3.0 3.0 0.00 0.00 0.00 88 1016.9
20260506082128 56 201 1.0 2.0 0.00 0.00 0.00 88 1016.8
20260506081626 56 311 1.0 2.0 0.00 0.00 0.00 88 1016.6
20260506081124 56 225 0.0 0.0 0.00 0.00 0.00 88 1016.5
20260506080621 56 317 1.0 2.0 0.00 0.00 0.00 88 1016.6
20260506080118 56 311 3.0 3.0 0.00 0.00 0.00 88 1016.6
20260506073102 56 310 2.0 2.0 0.00 0.00 0.00 88 1016.4
20260506072558 56 269 2.0 2.0 0.00 0.00 0.00 88 1016.5
20260506072056 56 340 2.0 2.0 0.00 0.00 0.00 88 1016.5
20260506071554 56 313 1.0 2.0 0.00 0.00 0.00 88 1016.3
20260506071051 56 313 4.0 5.0 0.00 0.00 0.00 88 1016.2
20260506070548 56 302 2.0 2.0 0.00 0.00 0.00 88 1016.2
20260506062022 56 271 0.0 1.0 0.00 0.00 0.00 88 1016.0
20260506061518 56 312 2.0 2.0 0.00 0.00 0.00 88 1015.9
20260506061016 56 348 1.0 1.0 0.00 0.00 0.00 88 1016.0
20260506060514 56 277 1.0 1.0 0.00 0.00 0.00 89 1016.1
20260506050943 57 289 1.0 1.0 0.00 0.00 0.00 88 1015.7
20260506050441 57 202 0.0 0.0 0.00 0.00 0.00 88 1015.9
20260506044931 57 233 0.0 0.0 0.00 0.00 0.00 87 1015.3
20260506044429 58 251 1.0 1.0 0.00 0.00 0.00 86 1015.5
20260506043926 58 329 0.0 2.0 0.00 0.00 0.00 86 1015.3
20260506043423 58 340 3.0 3.0 0.00 0.00 0.00 86 1015.5
20260506042921 58 321 2.0 2.0 0.00 0.00 0.00 86 1015.3
20260506042420 58 321 2.0 3.0 0.00 0.00 0.00 85 1015.2
20260506041918 59 303 4.0 5.0 0.00 0.00 0.00 85 1015.0
20260506041415 58 333 1.0 1.0 0.00 0.00 0.00 86 1015.1
20260506040912 59 185 1.0 2.0 0.00 0.00 0.00 86 1015.1
20260506040410 59 252 0.0 1.0 0.00 0.00 0.00 85 1015.0
20260506035905 59 188 0.0 1.0 0.00 0.00 0.00 85 1014.9
20260506035403 59 269 0.0 0.0 0.00 0.00 0.00 85 1014.8
20260506034900 59 193 0.0 0.0 0.00 0.00 0.00 85 1014.8
20260506034358 60 203 1.0 2.0 0.00 0.00 0.00 84 1014.7
20260506033854 60 238 1.0 1.0 0.00 0.00 0.00 83 1014.4
20260506033351 60 288 1.0 2.0 0.00 0.00 0.00 83 1014.4
20260506032848 60 304 2.0 2.0 0.00 0.00 0.00 83 1014.4
20260506032345 61 314 3.0 3.0 0.00 0.00 0.00 83 1014.4
20260506031842 61 300 1.0 2.0 0.00 0.00 0.00 82 1013.9
20260506031339 61 307 1.0 1.0 0.00 0.00 0.00 81 1014.0
20260506030837 61 311 3.0 3.0 0.00 0.00 0.00 81 1014.2
20260506030335 61 284 1.0 2.0 0.00 0.00 0.00 81 1014.2
20260506025831 62 309 1.0 2.0 0.00 0.00 0.00 81 1014.1
20260506025327 62 215 0.0 0.0 0.00 0.00 0.00 80 1014.1
20260506024825 62 277 0.0 0.0 0.00 0.00 0.00 80 1013.9
20260506024321 62 205 1.0 1.0 0.00 0.00 0.00 80 1013.7
20260506023817 63 204 1.0 1.0 0.00 0.00 0.00 80 1013.8
20260506023314 63 329 2.0 3.0 0.00 0.00 0.00 79 1013.9
20260506022811 63 196 1.0 1.0 0.00 0.00 0.00 79 1013.8
20260506022309 63 215 0.0 1.0 0.00 0.00 0.00 77 1013.8
20260506021807 64 254 1.0 1.0 0.00 0.00 0.00 77 1013.8
20260506021303 64 245 0.0 1.0 0.00 0.00 0.00 76 1013.9
20260506020800 64 242 1.0 1.0 0.00 0.00 0.00 76 1013.8
20260506020258 64 222 0.0 0.0 0.00 0.00 0.00 75 1014.0
20260506015756 64 316 1.0 2.0 0.00 0.00 0.00 76 1013.7
20260506015253 64 21 1.0 1.0 0.00 0.00 0.00 74 1013.8
20260506014749 64 261 0.0 1.0 0.00 0.00 0.00 74 1014.0
20260506014246 64 31 2.0 3.0 0.00 0.00 0.00 74 1013.7
20260506013743 64 349 2.0 2.0 0.00 0.00 0.00 75 1013.8
20260506013240 64 335 2.0 2.0 0.00 0.00 0.00 74 1013.7
20260506012736 64 358 2.0 2.0 0.00 0.00 0.00 73 1013.9
20260506012233 64 49 1.0 1.0 0.00 0.00 0.00 74 1014.0
20260506011731 64 1 2.0 2.0 0.00 0.00 0.00 74 1013.9
20260506011227 64 320 2.0 2.0 0.00 0.00 0.00 74 1013.9
20260506010726 64 319 3.0 5.0 0.00 0.00 0.00 74 1014.0
20260506010222 64 25 3.0 5.0 0.00 0.00 0.00 74 1013.9
20260506005720 64 349 4.0 5.0 0.00 0.00 0.00 74 1013.8
20260506005216 64 18 2.0 2.0 0.00 0.00 0.00 73 1014.0
20260506004712 64 12 3.0 6.0 0.00 0.00 0.00 73 1014.0
20260506004210 64 346 3.0 3.0 0.00 0.00 0.00 73 1014.2
20260506003706 65 20 5.0 6.0 0.00 0.00 0.00 73 1014.1